TimeCST,TemperatureF,Dew PointF,Humidity,Sea Level PressureIn,VisibilityMPH,Wind Direction,Wind SpeedMPH,Gust SpeedMPH,PrecipitationIn,Events,Conditions,WindDirDegrees,DateUTC
12:15 AM,37.4,30.2,75,29.92,10.0,WSW,6.9,-,N/A,,Clear,240,2013-01-19 06:15:00
12:35 AM,37.4,30.2,75,29.92,10.0,WSW,8.1,-,N/A,,Clear,240,2013-01-19 06:35:00
12:55 AM,37.4,30.2,75,29.92,10.0,SW,5.8,-,N/A,,Clear,230,2013-01-19 06:55:00
1:15 AM,37.4,30.2,75,29.92,10.0,WSW,6.9,-,N/A,,Clear,240,2013-01-19 07:15:00
1:35 AM,37.4,30.2,75,29.93,10.0,WSW,6.9,-,N/A,,Clear,240,2013-01-19 07:35:00
1:55 AM,37.4,28.4,70,29.93,10.0,WSW,4.6,-,N/A,,Clear,240,2013-01-19 07:55:00
2:15 AM,37.4,28.4,70,29.93,10.0,SW,4.6,-,N/A,,Clear,230,2013-01-19 08:15:00
2:35 AM,37.4,28.4,70,29.93,10.0,SW,4.6,-,N/A,,Clear,230,2013-01-19 08:35:00
2:55 AM,37.4,28.4,70,29.93,10.0,SW,4.6,-,N/A,,Clear,230,2013-01-19 08:55:00
3:15 AM,37.4,30.2,75,29.91,10.0,WSW,4.6,-,N/A,,Clear,240,2013-01-19 09:15:00
3:35 AM,37.4,30.2,75,29.91,10.0,SW,4.6,-,N/A,,Clear,220,2013-01-19 09:35:00
3:55 AM,37.4,30.2,75,29.90,10.0,SW,5.8,-,N/A,,Clear,230,2013-01-19 09:55:00
4:15 AM,37.4,30.2,75,29.90,10.0,WSW,5.8,-,N/A,,Clear,240,2013-01-19 10:15:00
4:35 AM,37.4,30.2,75,29.89,10.0,WSW,6.9,-,N/A,,Clear,240,2013-01-19 10:35:00
4:55 AM,37.4,30.2,75,29.88,10.0,SW,5.8,-,N/A,,Clear,230,2013-01-19 10:55:00
5:15 AM,37.4,30.2,75,29.88,10.0,SW,5.8,-,N/A,,Clear,230,2013-01-19 11:15:00
5:35 AM,37.4,30.2,75,29.88,10.0,SW,4.6,-,N/A,,Clear,230,2013-01-19 11:35:00
5:55 AM,37.4,28.4,70,29.87,10.0,SSW,5.8,-,N/A,,Clear,210,2013-01-19 11:55:00
6:15 AM,37.4,28.4,70,29.87,10.0,SW,5.8,-,N/A,,Clear,230,2013-01-19 12:15:00
6:35 AM,37.4,28.4,70,29.87,10.0,SW,5.8,-,N/A,,Clear,230,2013-01-19 12:35:00
6:55 AM,37.4,28.4,70,29.86,10.0,SW,4.6,-,N/A,,Clear,230,2013-01-19 12:55:00
7:15 AM,37.4,30.2,75,29.86,10.0,SW,5.8,-,N/A,,Clear,230,2013-01-19 13:15:00
7:35 AM,37.4,30.2,75,29.86,10.0,SW,5.8,-,N/A,,Clear,220,2013-01-19 13:35:00
8:15 AM,37.4,30.2,75,29.86,10.0,SW,5.8,-,N/A,,Scattered Clouds,230,2013-01-19 14:15:00
8:35 AM,37.4,30.2,75,29.86,10.0,SW,4.6,-,N/A,,Partly Cloudy,230,2013-01-19 14:35:00
8:55 AM,39.2,30.2,70,29.86,10.0,WSW,5.8,-,N/A,,Clear,240,2013-01-19 14:55:00
9:15 AM,39.2,30.2,70,29.86,10.0,SW,6.9,-,N/A,,Clear,230,2013-01-19 15:15:00
9:35 AM,39.2,32.0,75,29.86,10.0,WSW,6.9,-,N/A,,Partly Cloudy,240,2013-01-19 15:35:00
9:55 AM,41.0,32.0,70,29.86,10.0,SW,5.8,-,N/A,,Partly Cloudy,230,2013-01-19 15:55:00
10:15 AM,44.6,33.8,66,29.85,10.0,SW,8.1,17.3,N/A,,Clear,230,2013-01-19 16:15:00
10:55 AM,42.8,33.8,70,29.84,10.0,WSW,10.4,16.1,N/A,,Partly Cloudy,240,2013-01-19 16:55:00
11:15 AM,42.8,33.8,70,29.83,10.0,WSW,11.5,-,N/A,,Scattered Clouds,240,2013-01-19 17:15:00
11:35 AM,42.8,33.8,70,29.81,10.0,WSW,6.9,-,N/A,,Mostly Cloudy,240,2013-01-19 17:35:00
11:55 AM,44.6,35.6,71,29.80,10.0,WSW,8.1,-,N/A,,Overcast,240,2013-01-19 17:55:00
12:15 PM,44.6,35.6,71,29.79,10.0,WSW,11.5,-,N/A,,Mostly Cloudy,240,2013-01-19 18:15:00
12:35 PM,44.6,35.6,71,29.78,10.0,SW,9.2,-,N/A,,Mostly Cloudy,230,2013-01-19 18:35:00
12:55 PM,46.4,35.6,66,29.78,10.0,WSW,12.7,-,N/A,,Scattered Clouds,250,2013-01-19 18:55:00
1:15 PM,48.2,35.6,62,29.78,10.0,WSW,17.3,25.3,N/A,,Clear,250,2013-01-19 19:15:00
1:35 PM,48.2,35.6,62,29.77,10.0,WSW,12.7,20.7,N/A,,Clear,240,2013-01-19 19:35:00
1:55 PM,48.2,35.6,62,29.76,10.0,WSW,12.7,21.9,N/A,,Clear,250,2013-01-19 19:55:00
2:15 PM,48.2,35.6,62,29.76,10.0,WSW,15.0,-,N/A,,Clear,250,2013-01-19 20:15:00
2:35 PM,50.0,35.6,58,29.76,10.0,WSW,16.1,-,N/A,,Clear,250,2013-01-19 20:35:00
2:55 PM,50.0,35.6,58,29.76,10.0,WSW,16.1,-,N/A,,Clear,250,2013-01-19 20:55:00
3:15 PM,50.0,35.6,58,29.77,10.0,WSW,18.4,-,N/A,,Clear,250,2013-01-19 21:15:00
3:35 PM,50.0,35.6,58,29.78,10.0,West,19.6,24.2,N/A,,Clear,260,2013-01-19 21:35:00
3:55 PM,48.2,35.6,62,29.79,10.0,West,15.0,-,N/A,,Clear,260,2013-01-19 21:55:00
4:15 PM,48.2,35.6,62,29.79,10.0,West,12.7,-,N/A,,Clear,260,2013-01-19 22:15:00
4:35 PM,46.4,33.8,62,29.80,10.0,WSW,10.4,-,N/A,,Clear,250,2013-01-19 22:35:00
4:55 PM,44.6,33.8,66,29.81,10.0,WSW,12.7,-,N/A,,Clear,250,2013-01-19 22:55:00
5:15 PM,42.8,32.0,66,29.82,10.0,West,13.8,-,N/A,,Clear,260,2013-01-19 23:15:00
5:35 PM,41.0,32.0,70,29.82,10.0,West,12.7,-,N/A,,Clear,260,2013-01-19 23:35:00
5:55 PM,41.0,30.2,65,29.83,10.0,West,15.0,-,N/A,,Clear,270,2013-01-19 23:55:00
6:15 PM,41.0,32.0,70,29.83,10.0,West,16.1,-,N/A,,Clear,270,2013-01-20 00:15:00
6:35 PM,42.8,32.0,66,29.84,10.0,West,17.3,24.2,N/A,,Clear,260,2013-01-20 00:35:00
6:55 PM,41.0,32.0,70,29.85,10.0,West,19.6,25.3,N/A,,Clear,270,2013-01-20 00:55:00
7:15 PM,42.8,32.0,66,29.86,10.0,West,26.5,32.2,N/A,,Clear,270,2013-01-20 01:15:00
7:35 PM,41.0,30.2,65,29.87,10.0,WNW,24.2,31.1,N/A,,Clear,290,2013-01-20 01:35:00
7:55 PM,39.2,30.2,70,29.87,10.0,West,19.6,32.2,N/A,,Clear,280,2013-01-20 01:55:00
8:15 PM,-9999,-9999,N/A,29.88,10.0,West,27.6,34.5,N/A,,Partly Cloudy,280,2013-01-20 02:15:00
8:35 PM,-9999,-9999,N/A,29.89,10.0,West,28.8,35.7,N/A,,Mostly Cloudy,280,2013-01-20 02:35:00
8:55 PM,-9999,-9999,N/A,29.90,10.0,WNW,27.6,43.7,N/A,,Partly Cloudy,290,2013-01-20 02:55:00
9:15 PM,-9999,-9999,N/A,29.92,10.0,WNW,33.4,50.6,N/A,,Clear,300,2013-01-20 03:15:00
9:35 PM,33.8,15.8,48,29.95,10.0,NW,24.2,41.4,N/A,,Clear,310,2013-01-20 03:35:00
9:55 PM,-9999,-9999,N/A,29.96,10.0,WNW,25.3,39.1,N/A,,Clear,300,2013-01-20 03:55:00
10:15 PM,-9999,-9999,N/A,29.97,10.0,WNW,29.9,43.7,N/A,,Clear,300,2013-01-20 04:15:00
10:35 PM,-9999,-9999,N/A,29.99,10.0,WNW,32.2,39.1,N/A,,Clear,300,2013-01-20 04:35:00
10:55 PM,-9999,-9999,N/A,30.01,10.0,WNW,29.9,42.6,N/A,,Clear,300,2013-01-20 04:55:00
11:15 PM,-9999,-9999,N/A,30.02,10.0,WNW,27.6,36.8,N/A,,Clear,300,2013-01-20 05:15:00
11:35 PM,-9999,-9999,N/A,30.03,10.0,WNW,26.5,36.8,N/A,,Clear,300,2013-01-20 05:35:00